Location: Budapest
(47.5000°N, 19.0830°E)
Time: 11:58:10
(UTC+02:00)

X-37B - Pass Details

Date: 27 January 2022
Orbit: 329 x 342 km, 45.0° (Epoch: 18 May)

Event Time Altitude Azimuth Distance (km) Brightness Sun altitude
Rises 18:37:16 0° 226° (SW) 2,108 5.1 -20.2°
Reaches altitude 10° 18:39:31 10° 210° (SSW) 1,270 3.6 -20.6°
Enters shadow 18:40:32 16° 193° (SSW) 979 2.8 -20.8°
